Weather History for PATK - October, 2011

Change the Weather History Date:

Tuesday, October 11, 2011

  Actual Average Record
Temperature  
Mean Temperature 38 °F -  
Max Temperature 48 °F 41 °F 54 °F (1964)
Min Temperature 27 °F 26 °F 5 °F (1961)
Degree Days  
Heating Degree Days 28    
Moisture  
Dew Point 19 °F    
Average Humidity 49    
Maximum Humidity 81    
Minimum Humidity 29    
Precipitation  
Precipitation 0.00 in - - ()
Sea Level Pressure  
Sea Level Pressure 29.59 in    
Wind  
Wind Speed 4 mph (NNE)    
Max Wind Speed 10 mph    
Max Gust Speed 18 mph    
Visibility 10 miles    
Events      
Averages and records for this station are not official NWS values.
T = Trace of Precipitation, MM = Missing Value Source: NWS Daily Summary

Daily Weather History Graph

Daily Weather History Graph

Search for Another Location

Airport or City:

Trip Planner

Search our weather history database for the weather conditions in past years. The results will help you decide how hot, cold, wet, or windy it might be!

Date:

Astronomy

Oct. 11, 2011 Rise Set
Actual Time 8:34 AM AKDT 6:58 PM AKDT
Civil Twilight 7:49 AM AKDT 7:43 PM AKDT
Nautical Twilight 6:57 AM AKDT 8:35 PM AKDT
Astronomical Twilight 6:03 AM AKDT 9:28 PM AKDT
Moon 6:12 PM AKDT (10/11) 8:37 AM AKDT (10/11)
Length of Visible Light 11h 54m
Length of Day
10h 24m
Full, 100% of the Moon is Illuminated
Oct 11
Full
Oct 11
Full
Oct 19
Last Quarter
Oct 26
New
Nov 2
First Quarter

Hourly Weather History & Observations

Time (AKDT) Temp. Windchill Dew Point Humidity Pressure Visibility Wind Dir Wind Speed Gust Speed Precip Events Conditions
12:53 AM 32.0 °F - 19.9 °F 61% 29.53 in 10.0 mi Calm Calm - N/A   Clear
1:53 AM 30.9 °F 26.2 °F 19.9 °F 64% 29.53 in 10.0 mi NE 4.6 mph - N/A   Clear
2:53 AM 33.1 °F - 19.9 °F 59% 29.53 in 10.0 mi Calm Calm - N/A   Clear
3:53 AM 27.0 °F - 21.9 °F 81% 29.52 in 10.0 mi Calm Calm - N/A   Clear
4:53 AM 28.0 °F - 21.0 °F 75% 29.52 in 10.0 mi Calm Calm - N/A   Clear
5:53 AM 27.0 °F - 21.0 °F 78% 29.53 in 10.0 mi Calm Calm - N/A   Clear
6:53 AM 33.1 °F 27.7 °F 19.9 °F 59% 29.53 in 10.0 mi NNE 5.8 mph - N/A   Clear
7:53 AM 30.0 °F 24.1 °F 19.9 °F 66% 29.54 in 10.0 mi NE 5.8 mph - N/A   Clear
8:53 AM 33.1 °F 28.7 °F 19.9 °F 59% 29.55 in 10.0 mi North 4.6 mph - N/A   Clear
9:53 AM 34.0 °F 31.0 °F 19.9 °F 56% 29.56 in 10.0 mi North 3.5 mph - N/A   Clear
10:53 AM 37.9 °F 34.4 °F 19.9 °F 48% 29.56 in 10.0 mi NNE 4.6 mph - N/A   Clear
11:53 AM 41.0 °F 37.1 °F 19.9 °F 43% 29.57 in 10.0 mi NE 5.8 mph - N/A   Clear
12:53 PM 44.1 °F 40.1 °F 19.9 °F 38% 29.57 in 10.0 mi NE 6.9 mph - N/A   Clear
1:53 PM 46.9 °F - 19.0 °F 33% 29.57 in 10.0 mi East 4.6 mph - N/A   Clear
2:53 PM 48.9 °F - 18.0 °F 29% 29.57 in 10.0 mi NNE 10.4 mph 16.1 mph N/A   Clear
3:53 PM 48.9 °F - 18.0 °F 29% 29.57 in 10.0 mi NE 10.4 mph 18.4 mph N/A   Clear
4:53 PM 48.0 °F - 18.0 °F 30% 29.59 in 10.0 mi NNE 9.2 mph 17.3 mph N/A   Clear
5:53 PM 46.0 °F 41.9 °F 17.1 °F 31% 29.60 in 10.0 mi NNE 8.1 mph - N/A   Clear
6:53 PM 43.0 °F 37.2 °F 17.1 °F 35% 29.63 in 10.0 mi NNE 10.4 mph 17.3 mph N/A   Clear
7:53 PM 39.9 °F 33.9 °F 16.0 °F 38% 29.67 in 10.0 mi NNE 9.2 mph 17.3 mph N/A   Clear
8:53 PM 37.9 °F 32.7 °F 15.1 °F 39% 29.69 in 10.0 mi NNE 6.9 mph - N/A   Clear
9:53 PM 37.0 °F 32.4 °F 15.1 °F 41% 29.72 in 10.0 mi Variable 5.8 mph - N/A   Clear
10:53 PM 37.0 °F 33.3 °F 15.1 °F 41% 29.74 in 10.0 mi North 4.6 mph - N/A   Clear
11:53 PM 35.1 °F - 16.0 °F 46% 29.76 in 10.0 mi Calm Calm - N/A   Clear